Flag for France Weather past 2 weeks in Douai, France

Now
68 °F

Passing clouds.


Feels Like: 68 °F
Forecast: 58 / 75 °F
Wind: 8 mph from North

Location: Lille Airport

Current Time: Jul 25, 2014 at 10:41:27 PM

Latest Report: Jul 25, 2014 at 10:00 PM


Visibility: N/A

Pressure: 29.95 "Hg

Humidity: 69%

Dew point: 57 °F

Location of DouaiLocation

Historic Weather in Douai — Graph

°F

Douai temperature yesterday

Maximum temperature yesterday: 82 °F (at 1:30 PM)
Minimum temperature yesterday: 66 °F (at 5:00 AM)
Average temperature yesterday: 75 °F

Past Weeks' High & Low Weather Summary

 TemperatureHumidityPressure
High91 °F (Jul 18, 2:30 PM)100% (Jul 10, 10:00 PM)30.18 "Hg (Jul 10, 10:00 PM)
Low55 °F (Jul 15, 1:30 AM)35% (Jul 24, 5:00 PM)29.74 "Hg (Jul 13, 5:30 PM)
Average69 °F75%29.98 "Hg
* Reported Jul 10 9:00 PM — Jul 25 9:30 PM, Douai, Weather by CustomWeather, © 2014

Note: Actual official high and low records may vary slightly from our data, if they occured in-between our weather recording intervals... More about our weather records

Advertising

Douai weather history for previous 24 hours

 ConditionsComfort  
Time TempWeatherWind HumidityBarometerVisibility
9:30 PM
Jul 25
68 °FScattered clouds.9 mph73%29.95 "HgN/A
9:00 PM70 °FScattered clouds.10 mph64%29.95 "HgN/A
8:30 PM70 °FScattered clouds.13 mph64%29.95 "HgN/A
8:00 PM72 °FScattered clouds.13 mph61%29.95 "HgN/A
7:30 PM72 °FScattered clouds.10 mph61%29.92 "HgN/A
7:00 PM73 °FScattered clouds.12 mph57%29.92 "HgN/A
6:30 PM75 °FScattered clouds.15 mph54%29.92 "HgN/A
6:00 PM75 °FSunny.15 mph54%29.92 "Hg10 mi
5:30 PM75 °FSunny.12 mph54%29.92 "Hg10 mi
5:00 PM75 °FSunny.15 mph54%29.95 "Hg10 mi
4:30 PM75 °FPassing clouds.17 mph57%29.92 "HgN/A
4:00 PM75 °FScattered clouds.17 mph57%29.92 "HgN/A
3:30 PM77 °FScattered clouds.16 mph54%29.95 "HgN/A
3:00 PM75 °FScattered clouds.14 mph54%29.95 "HgN/A
2:30 PM73 °FPartly sunny.13 mph57%29.95 "HgN/A
2:00 PM75 °FPartly sunny.14 mph54%29.95 "HgN/A
1:30 PM75 °FScattered clouds.9 mph57%29.95 "HgN/A
1:00 PM77 °FScattered clouds.10 mph54%29.95 "HgN/A
12:30 PM77 °FScattered clouds.10 mph54%29.95 "HgN/A
12:00 PM73 °FPartly sunny.10 mph65%29.98 "HgN/A
11:30 AM72 °FSunny.9 mph65%29.98 "Hg10 mi
11:00 AM72 °FSunny.9 mph65%29.98 "Hg10 mi
10:30 AM70 °FPassing clouds.5 mph69%29.98 "HgN/A
10:00 AM68 °FSunny.6 mph73%29.98 "Hg10 mi
9:30 AM68 °FSunny.7 mph69%29.98 "Hg10 mi
9:00 AM66 °FPassing clouds.7 mph73%29.98 "HgN/A
8:30 AM66 °FSunny.7 mph73%29.98 "Hg10 mi
8:00 AM64 °FPassing clouds.6 mph78%29.98 "HgN/A
7:30 AM64 °FSunny.7 mph78%29.95 "Hg10 mi
7:00 AM64 °FClear.6 mph78%29.95 "Hg10 mi
6:30 AM63 °FClear.3 mph77%29.95 "Hg10 mi
6:00 AM63 °FClear.6 mph77%29.95 "Hg10 mi
5:30 AM63 °FClear.6 mph77%29.95 "Hg10 mi
5:00 AM64 °FClear.8 mph73%29.95 "Hg10 mi
4:30 AM64 °FClear.7 mph73%29.95 "HgN/A
4:00 AM64 °FClear.7 mph73%29.95 "HgN/A
3:30 AM66 °FClear.9 mph68%29.95 "HgN/A
3:00 AM66 °FClear.8 mph68%29.95 "HgN/A
2:30 AM66 °FClear.7 mph68%29.95 "HgN/A
2:00 AM68 °FClear.9 mph69%29.95 "Hg10 mi
1:30 AM68 °FClear.8 mph69%29.95 "Hg10 mi
1:00 AM70 °FClear.9 mph64%29.95 "Hg10 mi
12:30 AM70 °FClear.8 mph64%29.95 "Hg10 mi
12:00 AM70 °FClear.8 mph64%29.95 "Hg10 mi
11:30 PM
Jul 24
70 °FClear.8 mph64%29.95 "Hg10 mi
11:00 PM72 °FClear.7 mph61%29.95 "Hg10 mi
10:30 PM72 °FSunny.7 mph61%29.95 "Hg10 mi
10:00 PM73 °FSunny.7 mph61%29.95 "Hg10 mi
Weather by CustomWeather, © 2014

See weather overviewHow to use our weather pages